Flag for Germany Weather past 2 weeks in Dinslaken, North Rhine-Westphalia, Germany

Now
59 °F

Sunny.


Feels Like: 59 °F
Forecast: 41 / 62 °F
Wind: 2 mph from Northeast

Location: Essen

Current Time: Apr 19, 2015 at 6:34:16 PM

Latest Report: Apr 19, 2015 at 6:00 PM


Visibility: 13 mi

Pressure: 30.16 "Hg

Humidity: 43%

Dew point: 36 °F

Location of DinslakenLocation

Historic Weather in Dinslaken — Graph

°F

Dinslaken temperature yesterday

Maximum temperature yesterday: 56 °F (at 5:00 PM)
Minimum temperature yesterday: 38 °F (at 7:00 AM)
Average temperature yesterday: 48 °F

Past Weeks' High & Low Weather Summary

 TemperatureHumidityPressure
High72 °F (Apr 15, 3:00 PM)100% (Apr 6, 11:00 AM)30.65 "Hg (Apr 6, 11:00 AM)
Low32 °F (Apr 5, 7:00 AM)27% (Apr 10, 3:00 PM)29.93 "Hg (Apr 15, 7:00 PM)
Average50 °F65%30.27 "Hg
* Reported Apr 4 5:00 PM — Apr 19 5:00 PM, Dinslaken, Weather by CustomWeather, © 2015

Note: Actual official high and low records may vary slightly from our data, if they occured in-between our weather recording intervals... More about our weather records

Advertising

Dinslaken weather history for previous 24 hours

 ConditionsComfort  
Time TempWeatherWind HumidityBarometerVisibility
5:00 PM
Sun, Apr 19
58 °FPartly sunny.3 mph44%30.16 "Hg12 mi
4:00 PM58 °FScattered clouds.2 mph43%30.15 "Hg12 mi
3:00 PM56 °FOvercast.1 mph46%30.17 "Hg12 mi
2:00 PM54 °FOvercast.2 mph46%30.18 "Hg14 mi
1:00 PM53 °FOvercast.2 mph57%30.18 "Hg10 mi
12:00 PM51 °FOvercast.2 mph62%30.19 "Hg9 mi
11:00 AM48 °FOvercast.2 mph71%30.19 "Hg9 mi
10:00 AM45 °FOvercast.2 mph79%30.19 "Hg7 mi
9:00 AM41 °FOvercast.3 mph88%30.20 "Hg6 mi
8:00 AM38 °FFog.3 mph97%30.20 "Hg4 mi
7:00 AM38 °FOvercast.3 mph95%30.21 "Hg5 mi
6:00 AM38 °FOvercast.3 mph94%30.20 "Hg6 mi
5:00 AM40 °FOvercast.2 mph88%30.22 "Hg11 mi
4:00 AM41 °FClear.2 mph84%30.24 "Hg14 mi
3:00 AM43 °FPassing clouds.2 mph75%30.24 "Hg22 mi
2:00 AM44 °FOvercast.3 mph68%30.26 "Hg25 mi
1:00 AM46 °FClear.5 mph65%30.27 "Hg25 mi
12:00 AM46 °FClear.5 mph60%30.28 "Hg18 mi
11:00 PM
Sat, Apr 18
49 °FPassing clouds.1 mph47%30.28 "Hg19 mi
10:00 PM50 °FClear.2 mph47%30.28 "Hg25 mi
9:00 PM51 °FClear.2 mph44%30.27 "Hg25 mi
8:00 PM53 °FSunny.2 mph41%30.27 "Hg25 mi
7:00 PM54 °FSunny.5 mph37%30.27 "Hg28 mi
6:00 PM55 °FSunny.5 mph35%30.28 "Hg34 mi
Weather by CustomWeather, © 2015

See weather overviewHow to use our weather pages